CFTEB CYRM-CYQF

Flight info

Callsign CFTEB
Flight time 0h 25m
Altitude 5500
Route CYRM YRMR093 YQF CYQF
Aircraft C152/L-VGD/A

Departure

Time 2026-04-23 20:35
Airport Rocky Mountain House Airport (CYRM)

Arrival

Time 2026-04-23 21:01
Airport Red Deer Regional Airport (CYQF)
Time Latitude Longitude Altitude Speed Heading
2026-04-23 20:24 52.42942 -114.90591 3244 ft 0 kts 62°
2026-04-23 20:28 52.42944 -114.90586 3247 ft 0 kts 66°
2026-04-23 20:30 52.42877 -114.90482 3243 ft 7 kts 70°
2026-04-23 20:30 52.42900 -114.90384 3244 ft 13 kts 91°
2026-04-23 20:31 52.42842 -114.90281 3244 ft 14 kts 161°
2026-04-23 20:31 52.42737 -114.90180 3247 ft 20 kts 145°
2026-04-23 20:31 52.42622 -114.90049 3248 ft 20 kts 145°
2026-04-23 20:31 52.42517 -114.89931 3250 ft 15 kts 146°
2026-04-23 20:32 52.42421 -114.89837 3247 ft 16 kts 146°
2026-04-23 20:32 52.42347 -114.89788 3247 ft 4 kts 261°
2026-04-23 20:32 52.42402 -114.89844 3247 ft 21 kts 332°
2026-04-23 20:32 52.42630 -114.90074 3257 ft 52 kts 326°
2026-04-23 20:33 52.42903 -114.90391 3432 ft 45 kts 325°
2026-04-23 20:33 52.43153 -114.90686 3596 ft 44 kts 327°
2026-04-23 20:33 52.43439 -114.90972 3718 ft 50 kts 331°
2026-04-23 20:33 52.43722 -114.91286 3889 ft 50 kts 326°
2026-04-23 20:34 52.43950 -114.91652 4148 ft 43 kts 324°
2026-04-23 20:34 52.44177 -114.91972 4277 ft 41 kts 329°
2026-04-23 20:34 52.44410 -114.92234 4369 ft 41 kts 336°
2026-04-23 20:34 52.44625 -114.92426 4592 ft 34 kts 331°
2026-04-23 20:35 52.44849 -114.92644 4675 ft 42 kts 330°
2026-04-23 20:35 52.45087 -114.92961 4779 ft 46 kts 317°
2026-04-23 20:35 52.45134 -114.93506 4975 ft 54 kts 288°
2026-04-23 20:35 52.44898 -114.94106 5110 ft 74 kts 255°
2026-04-23 20:36 52.44373 -114.94554 5241 ft 100 kts 209°
2026-04-23 20:36 52.43636 -114.94420 5340 ft 114 kts 162°
2026-04-23 20:36 52.42959 -114.93761 5464 ft 111 kts 131°
2026-04-23 20:36 52.42470 -114.92822 5589 ft 106 kts 110°
2026-04-23 20:37 52.42090 -114.91849 5758 ft 99 kts 104°
2026-04-23 20:37 52.41733 -114.90887 5880 ft 100 kts 103°
2026-04-23 20:37 52.41357 -114.89913 6012 ft 100 kts 107°
2026-04-23 20:37 52.40979 -114.88938 6119 ft 103 kts 107°
2026-04-23 20:38 52.40586 -114.87986 6240 ft 104 kts 110°
2026-04-23 20:38 52.40157 -114.86995 6328 ft 107 kts 111°
2026-04-23 20:38 52.39739 -114.85996 6449 ft 103 kts 109°
2026-04-23 20:38 52.39321 -114.85041 6574 ft 103 kts 112°
2026-04-23 20:39 52.38907 -114.84090 6701 ft 104 kts 111°
2026-04-23 20:39 52.38473 -114.83122 6838 ft 104 kts 113°
2026-04-23 20:39 52.38044 -114.82155 6952 ft 107 kts 114°
2026-04-23 20:39 52.37590 -114.81154 7040 ft 114 kts 115°
2026-04-23 20:40 52.37099 -114.80145 7180 ft 112 kts 119°
2026-04-23 20:40 52.36566 -114.79182 7265 ft 117 kts 126°
2026-04-23 20:40 52.35977 -114.78198 7280 ft 127 kts 126°
2026-04-23 20:40 52.35381 -114.77137 7356 ft 124 kts 123°
2026-04-23 20:41 52.34805 -114.76066 7372 ft 128 kts 122°
2026-04-23 20:41 52.34204 -114.74957 7353 ft 130 kts 123°
2026-04-23 20:41 52.33592 -114.73879 7343 ft 131 kts 124°
2026-04-23 20:41 52.32952 -114.72782 7240 ft 137 kts 126°
2026-04-23 20:42 52.32324 -114.71591 7122 ft 138 kts 119°
2026-04-23 20:42 52.31802 -114.70328 7081 ft 129 kts 107°
2026-04-23 20:42 52.31410 -114.69021 7004 ft 128 kts 98°
2026-04-23 20:42 52.31090 -114.67696 6976 ft 124 kts 95°
2026-04-23 20:43 52.30765 -114.66394 6974 ft 124 kts 97°
2026-04-23 20:43 52.30412 -114.65119 6943 ft 125 kts 100°
2026-04-23 20:43 52.30078 -114.63826 6921 ft 123 kts 96°
2026-04-23 20:43 52.29742 -114.62547 6926 ft 121 kts 97°
2026-04-23 20:44 52.29405 -114.61296 6929 ft 121 kts 96°
2026-04-23 20:44 52.29077 -114.60026 6918 ft 122 kts 99°
2026-04-23 20:44 52.28704 -114.58773 6914 ft 123 kts 101°
2026-04-23 20:44 52.28291 -114.57547 6930 ft 124 kts 112°
2026-04-23 20:45 52.27839 -114.56374 6965 ft 121 kts 106°
2026-04-23 20:45 52.27440 -114.55180 6982 ft 121 kts 103°
2026-04-23 20:45 52.27029 -114.53979 6972 ft 125 kts 105°
2026-04-23 20:45 52.26610 -114.52697 6911 ft 127 kts 103°
2026-04-23 20:46 52.26202 -114.51471 6897 ft 119 kts 106°
2026-04-23 20:46 52.25793 -114.50320 6890 ft 114 kts 104°
2026-04-23 20:46 52.25432 -114.49169 6855 ft 116 kts 100°
2026-04-23 20:46 52.25068 -114.48005 6842 ft 113 kts 100°
2026-04-23 20:47 52.24774 -114.46856 6832 ft 110 kts 91°
2026-04-23 20:47 52.24499 -114.45672 6856 ft 113 kts 93°
2026-04-23 20:47 52.24219 -114.44467 6898 ft 113 kts 92°
2026-04-23 20:47 52.23932 -114.43266 6953 ft 114 kts 92°
2026-04-23 20:48 52.23666 -114.42062 6999 ft 113 kts 90°
2026-04-23 20:48 52.23406 -114.40850 6941 ft 117 kts 91°
2026-04-23 20:48 52.23162 -114.39611 6918 ft 115 kts 91°
2026-04-23 20:48 52.22882 -114.38329 6799 ft 126 kts 92°
2026-04-23 20:49 52.22607 -114.37021 6738 ft 120 kts 91°
2026-04-23 20:49 52.22333 -114.35713 6639 ft 122 kts 92°
2026-04-23 20:49 52.22066 -114.34423 6594 ft 120 kts 94°
2026-04-23 20:49 52.21753 -114.33116 6414 ft 124 kts 94°
2026-04-23 20:50 52.21414 -114.31811 6281 ft 123 kts 95°
2026-04-23 20:50 52.21092 -114.30553 6168 ft 122 kts 97°
2026-04-23 20:50 52.20769 -114.29260 6021 ft 126 kts 95°
2026-04-23 20:50 52.20435 -114.27961 5939 ft 122 kts 97°
2026-04-23 20:51 52.20107 -114.26683 5824 ft 122 kts 94°
2026-04-23 20:51 52.19765 -114.25407 5732 ft 123 kts 99°
2026-04-23 20:51 52.19399 -114.24212 5621 ft 124 kts 102°
2026-04-23 20:51 52.18999 -114.22969 5546 ft 124 kts 105°
2026-04-23 20:52 52.18570 -114.21741 5465 ft 125 kts 104°
2026-04-23 20:52 52.18144 -114.20520 5391 ft 124 kts 103°
2026-04-23 20:52 52.17759 -114.19309 5301 ft 122 kts 99°
2026-04-23 20:52 52.17391 -114.18072 5219 ft 120 kts 99°
2026-04-23 20:53 52.17028 -114.16870 5167 ft 119 kts 102°
2026-04-23 20:53 52.16602 -114.15694 5087 ft 123 kts 108°
2026-04-23 20:53 52.16147 -114.14533 5062 ft 119 kts 109°
2026-04-23 20:53 52.15689 -114.13388 5007 ft 121 kts 108°
2026-04-23 20:54 52.15201 -114.12282 5015 ft 122 kts 113°
2026-04-23 20:54 52.14697 -114.11176 5019 ft 121 kts 112°
2026-04-23 20:54 52.14212 -114.10069 5057 ft 118 kts 106°
2026-04-23 20:54 52.13903 -114.08939 5109 ft 105 kts 88°
2026-04-23 20:55 52.13683 -114.07826 5137 ft 104 kts 85°
2026-04-23 20:55 52.13466 -114.06654 5114 ft 112 kts 86°
2026-04-23 20:55 52.13227 -114.05456 5151 ft 110 kts 87°
2026-04-23 20:55 52.12974 -114.04298 5204 ft 107 kts 88°
2026-04-23 20:56 52.12741 -114.03164 5257 ft 107 kts 87°
2026-04-23 20:56 52.12507 -114.02017 5301 ft 106 kts 85°
2026-04-23 20:56 52.12373 -114.00905 5380 ft 95 kts 70°
2026-04-23 20:56 52.12344 -113.99847 5437 ft 92 kts 64°
2026-04-23 20:57 52.12351 -113.98773 5448 ft 97 kts 66°
2026-04-23 20:57 52.12350 -113.97684 5510 ft 98 kts 66°
2026-04-23 20:57 52.12360 -113.96543 5435 ft 106 kts 64°
2026-04-23 20:57 52.12349 -113.95302 5418 ft 111 kts 72°
2026-04-23 20:58 52.12335 -113.94091 5157 ft 105 kts 68°
2026-04-23 20:58 52.12398 -113.92902 4970 ft 105 kts 63°
2026-04-23 20:58 52.12523 -113.91849 4713 ft 89 kts 45°
2026-04-23 20:58 52.12786 -113.90929 4498 ft 87 kts 37°
2026-04-23 20:59 52.13093 -113.90164 4212 ft 75 kts 28°
2026-04-23 20:59 52.13465 -113.89650 3901 ft 66 kts 11°
2026-04-23 20:59 52.13896 -113.89411 3695 ft 69 kts 359°
2026-04-23 20:59 52.14342 -113.89269 3623 ft 59 kts 358°
2026-04-23 21:00 52.14748 -113.89214 3472 ft 62 kts 350°
2026-04-23 21:00 52.15183 -113.89201 3453 ft 64 kts 352°
2026-04-23 21:00 52.15652 -113.89179 3393 ft 69 kts 352°
2026-04-23 21:00 52.16145 -113.89206 3341 ft 70 kts 349°
2026-04-23 21:01 52.16626 -113.89259 3265 ft 71 kts 351°
2026-04-23 21:01 52.17055 -113.89257 3187 ft 49 kts 352°
2026-04-23 21:01 52.17349 -113.89238 3067 ft 42 kts 342°
2026-04-23 21:01 52.17665 -113.89257 2988 ft 44 kts 347°
2026-04-23 21:02 52.17937 -113.89271 2959 ft 38 kts 358°
2026-04-23 21:02 52.18145 -113.89275 2960 ft 22 kts
2026-04-23 21:02 52.18270 -113.89263 2953 ft 15 kts
2026-04-23 21:02 52.18371 -113.89258 2961 ft 13 kts
2026-04-23 21:03 52.18425 -113.89197 2964 ft 9 kts 74°
2026-04-23 21:03 52.18424 -113.89076 2965 ft 15 kts 81°
2026-04-23 21:03 52.18396 -113.88964 2965 ft 13 kts 157°
2026-04-23 21:03 52.18299 -113.88981 2964 ft 14 kts 180°
2026-04-23 21:04 52.18209 -113.88976 2963 ft 13 kts 182°
2026-04-23 21:04 52.18114 -113.88972 2962 ft 13 kts 168°
2026-04-23 21:04 52.18074 -113.88897 2961 ft 5 kts 75°
2026-04-23 21:04 52.18074 -113.88891 2961 ft 0 kts 124°